This is the latest recevied weather packets stored in our database for station/object KA8DUX-2. If no packets are shown the sender has not sent any weather packets the latest 10 day(s).
| Time | Temp. | Humidity | Pressure | Rain* | Wind** | Luminosity | Snow |
|---|---|---|---|---|---|---|---|
| 1777759027 | 10.56° C | 37% | 1014.9 hPa | 0 mm | - | 86 W/m² | - |
| 1777758724 | 10° C | 39% | 1015 hPa | 0 mm | - | 173 W/m² | - |
| 1777758421 | 10.56° C | 38% | 1014.9 hPa | 0 mm | - | 218 W/m² | - |
| 1777758118 | 10.56° C | 40% | 1015.1 hPa | 0 mm | - | 162 W/m² | - |
| 1777757815 | 10.56° C | 39% | 1015.1 hPa | 0 mm | - | 93 W/m² | - |
| 1777757512 | 11.11° C | 40% | 1015.1 hPa | 0 mm | - | 225 W/m² | - |
| 1777757211 | 10.56° C | 39% | 1015.4 hPa | 0 mm | - | 95 W/m² | - |
| 1777756909 | 10° C | 39% | 1015.1 hPa | 0 mm | - | 132 W/m² | - |
| 1777756604 | 11.11° C | 38% | 1015.1 hPa | 0 mm | - | 116 W/m² | - |
| 1777756301 | 11.11° C | 40% | 1015.2 hPa | 0 mm | - | 264 W/m² | - |
| 1777755999 | 11.11° C | 40% | 1015.1 hPa | 0 mm | - | 367 W/m² | - |
| 1777755696 | 11.67° C | 38% | 1015.1 hPa | 0 mm | - | 401 W/m² | - |
| 1777755392 | 11.11° C | 40% | 1015.2 hPa | 0 mm | - | 484 W/m² | - |
| 1777755089 | 11.11° C | 39% | 1015.3 hPa | 0 mm | - | 469 W/m² | - |
| 1777754786 | 11.67° C | 42% | 1015.3 hPa | 0 mm | - | 514 W/m² | - |
| 1777754478 | 11.67° C | 42% | 1015.4 hPa | 0 mm | - | 553 W/m² | - |
| 1777754174 | 11.67° C | 40% | 1015.4 hPa | 0 mm | - | 475 W/m² | - |
| 1777753867 | 11.67° C | 41% | 1015.5 hPa | 0 mm | - | 566 W/m² | - |
| 1777753562 | 11.67° C | 40% | 1015.7 hPa | 0 mm | - | 464 W/m² | - |
| 1777753260 | 11.67° C | 41% | 1015.7 hPa | 0 mm | - | 199 W/m² | - |
| 1777752956 | 10.56° C | 43% | 1015.6 hPa | 0 mm | - | 706 W/m² | - |
| 1777752653 | 10.56° C | 43% | 1015.8 hPa | 0 mm | - | 706 W/m² | - |
| 1777752348 | 10.56° C | 46% | 1015.7 hPa | 0 mm | - | 276 W/m² | - |
| 1777752047 | 10° C | 45% | 1015.8 hPa | 0 mm | - | 250 W/m² | - |
| 1777751744 | 10.56° C | 43% | 1016.1 hPa | 0 mm | - | 137 W/m² | - |
* Rain latest hour (hover to see other rain measurements)
** Current wind speed in m/s (hover to see current wind gust speed)